Location: Sternwarte Radebeul
(51.1160°N, 13.6224°E)
Time: 22:12:25
(UTC+01:00)

ISS - Pass Details

Date: 23 January 2020
Orbit: 415 x 423 km, 51.6° (Epoch: 25 February)

Event Time Altitude Azimuth Distance (km) Brightness Sun altitude
Rises 17:31:44 0° 197° (SSW) 2,369 0.7 -8.2°
Reaches altitude 10° 17:34:37 10° 171° (S) 1,507 -0.8 -8.6°
Maximum altitude 17:36:24 14° 139° (SE) 1,302 -1.5 -8.9°
Drops below altitude 10° 17:38:11 10° 107° (ESE) 1,511 -1.4 -9.1°
Enters shadow 17:38:28 - 103° (ESE) 1,575 -1.4 -9.2°
